OE5RLP-14 Weather Reports


time (UTC)temp
C
wind
direction
speed
KPH
gust
KPH
rain 1hr
cm
rain 24hr
cm
rain mn
cm
humidity
%
barometer
mb
20260906005329 17 281 6.4 9.7 0.00 0.28 0.00 77 1027.7
20260906004326 17 262 4.8 6.4 0.00 0.28 0.00 78 1027.7
20260906003323 17 277 3.2 4.8 0.00 0.28 0.00 79 1027.8
20260906002320 17 261 3.2 4.8 0.00 0.28 0.00 80 1027.7
20260906001318 17 264 4.8 4.8 0.00 0.28 0.00 81 1027.7
20260906000345 17 233 3.2 6.4 0.00 0.28 0.00 82 1027.8
20260905235342 17 280 4.8 6.4 0.00 0.28 0.00 82 1027.7
20260905234339 17 260 3.2 9.7 0.00 0.28 0.00 83 1027.4
20260905233336 17 228 3.2 3.2 0.00 0.28 0.00 83 1027.6
20260905232334 17 264 4.8 9.7 0.00 0.28 0.00 83 1027.4
20260905231330 17 273 6.4 9.7 0.00 0.28 0.00 83 1027.4
20260905230327 17 291 6.4 11.3 0.00 0.28 0.00 84 1027.4
20260905225324 17 253 8.0 12.9 0.00 0.28 0.00 85 1027.4
20260905224322 17 232 3.2 6.4 0.00 0.28 0.00 86 1027.4
20260905223319 17 261 8.0 9.7 0.00 0.28 0.00 86 1027.2
20260905222317 17 259 9.7 16.1 0.00 0.28 0.00 86 1027.1
20260905221343 17 282 6.4 6.4 0.00 0.28 0.00 85 1027.1
20260905220342 18 279 9.7 12.9 0.00 0.28 0.00 83 1027.0
20260905215337 18 248 6.4 9.7 0.00 0.28 0.28 79 1027.1
20260905214414 18 290 8.0 12.9 0.00 0.28 0.28 76 1027.0
20260905213331 18 293 11.3 14.5 0.00 0.28 0.28 76 1026.6
20260905212410 18 285 11.3 14.5 0.00 0.28 0.28 74 1026.4
20260905211326 18 299 8.0 9.7 0.00 0.28 0.28 74 1026.2
20260905210323 18 307 6.4 6.4 0.00 0.28 0.28 72 1026.1
20260905205320 18 291 3.2 6.4 0.00 0.28 0.28 70 1026.0
20260905204318 18 252 3.2 4.8 0.00 0.28 0.28 69 1025.9
20260905203345 19 267 8.0 11.3 0.00 0.28 0.28 69 1026.2
20260905202344 19 285 4.8 9.7 0.00 0.28 0.28 69 1025.9
20260905201339 18 240 8.0 17.7 0.00 0.28 0.28 69 1026.0
20260905200336 19 246 9.7 20.9 0.00 0.28 0.28 68 1025.7
20260905195333 18 198 4.8 9.7 0.00 0.28 0.28 69 1026.2
20260905194330 18 229 4.8 6.4 0.00 0.28 0.28 68 1025.8
20260905193349 18 239 6.4 11.3 0.00 0.28 0.28 67 1025.8
20260905192324 18 256 4.8 6.4 0.00 0.28 0.28 67 1025.8
20260905191321 18 202 6.4 9.7 0.00 0.28 0.28 65 1025.6
20260905190320 18 268 6.4 6.4 0.00 0.28 0.28 64 1025.7
20260905185316 18 239 4.8 12.9 0.00 0.28 0.28 62 1025.5
20260905184343 18 232 6.4 9.7 0.00 0.28 0.28 62 1025.4
20260905183340 18 263 8.0 9.7 0.00 0.28 0.28 63 1025.3
20260905182358 18 272 4.8 6.4 0.00 0.28 0.28 63 1025.2
20260905181335 18 248 6.4 12.9 0.00 0.28 0.28 63 1025.2
20260905180331 18 261 4.8 6.4 0.00 0.28 0.28 64 1025.0
20260905175328 18 247 6.4 14.5 0.00 0.28 0.28 64 1024.9
20260905174325 18 282 6.4 9.7 0.00 0.28 0.28 64 1024.7
20260905173322 19 255 9.7 14.5 0.00 0.28 0.28 63 1024.7
20260905172320 19 283 9.7 12.9 0.00 0.28 0.28 62 1024.6
20260905171317 20 265 4.8 9.7 0.00 0.28 0.28 62 1024.8
20260905170404 20 239 8.0 14.5 0.00 0.28 0.28 64 1024.6
20260905165342 20 230 4.8 6.4 0.00 0.28 0.28 65 1024.5
20260905164338 20 239 4.8 6.4 0.00 0.28 0.28 64 1024.8
20260905163335 20 260 12.9 16.1 0.00 0.28 0.28 66 1024.6
20260905162352 20 280 8.0 12.9 0.00 0.28 0.28 66 1024.6
20260905161330 20 294 9.7 12.9 0.00 0.28 0.28 67 1024.5
20260905160327 20 283 16.1 22.5 0.00 0.28 0.28 67 1024.6
20260905155345 20 277 6.4 9.7 0.00 0.28 0.28 69 1024.3
20260905154321 20 289 8.0 17.7 0.00 0.28 0.28 67 1024.3
20260905153318 20 269 12.9 24.1 0.00 0.28 0.28 66 1024.3
20260905152345 20 298 14.5 22.5 0.00 0.28 0.28 65 1024.5
20260905151342 20 291 11.3 14.5 0.00 0.28 0.28 66 1024.6
20260905150339 20 280 16.1 24.1 0.00 0.28 0.28 67 1024.3
20260905145336 20 280 6.4 9.7 0.00 0.28 0.28 66 1024.4
20260905144333 20 305 17.7 27.4 0.00 0.28 0.28 67 1024.2
20260905143331 20 277 12.9 24.1 0.00 0.28 0.28 65 1024.3
20260905142329 20 293 11.3 12.9 0.00 0.28 0.28 69 1024.6
20260905141347 20 304 22.5 37.0 0.00 0.28 0.28 67 1024.4
20260905140324 20 287 11.3 20.9 0.00 0.28 0.28 69 1024.1
20260905135319 20 276 16.1 30.6 0.00 0.28 0.28 68 1024.1
20260905134316 20 286 14.5 22.5 0.00 0.28 0.28 68 1024.0
20260905133343 20 295 19.3 25.7 0.00 0.28 0.28 67 1024.2
20260905132340 21 303 11.3 17.7 0.00 0.28 0.28 66 1024.4
20260905131337 21 285 20.9 24.1 0.00 0.28 0.28 67 1024.2
20260905130334 21 303 16.1 25.7 0.00 0.28 0.28 67 1024.3
20260905125332 21 292 9.7 17.7 0.00 0.28 0.28 69 1024.5
20260905124329 21 288 12.9 20.9 0.00 0.28 0.28 68 1024.7
20260905123326 20 293 22.5 41.8 0.00 0.28 0.28 67 1024.5
20260905122322 20 225 6.4 9.7 0.00 0.28 0.28 70 1024.5
20260905121320 20 299 16.1 25.7 0.00 0.28 0.28 70 1024.6
20260905120318 20 281 22.5 25.7 0.00 0.28 0.28 70 1024.6
20260905115405 20 297 17.7 25.7 0.00 0.28 0.28 70 1024.7
20260905114341 21 286 12.9 22.5 0.00 0.28 0.28 67 1024.6
20260905113340 21 300 16.1 25.7 0.00 0.28 0.28 70 1024.6
20260905112335 20 324 12.9 16.1 0.00 0.28 0.28 69 1024.4
20260905111353 20 294 14.5 24.1 0.00 0.28 0.28 69 1024.6
20260905110330 20 301 14.5 22.5 0.00 0.28 0.28 71 1024.4
20260905105327 20 301 12.9 24.1 0.00 0.28 0.28 70 1024.3
20260905104324 20 271 9.7 16.1 0.00 0.28 0.28 72 1024.5
20260905103343 20 291 9.7 12.9 0.00 0.28 0.28 71 1024.4
20260905102318 19 249 3.2 4.8 0.00 0.28 0.28 72 1024.5
20260905101417 19 295 6.4 9.7 0.00 0.28 0.28 75 1024.5
20260905100342 19 281 4.8 9.7 0.00 0.28 0.28 77 1024.7
20260905095340 18 270 8.0 12.9 0.00 0.28 0.28 77 1024.7
20260905094337 17 193 3.2 3.2 0.00 0.28 0.28 83 1024.4
20260905093336 16 178 4.8 6.4 0.00 0.28 0.28 90 1024.6
20260905092351 16 194 8.0 11.3 0.00 0.28 0.28 92 1024.5
20260905091330 15 192 6.4 11.3 0.00 0.28 0.28 92 1024.7
20260905090325 15 186 3.2 4.8 0.03 0.28 0.28 92 1024.8
20260905085322 15 263 3.2 6.4 0.05 0.28 0.28 93 1024.9
20260905084320 14 178 6.4 9.7 0.05 0.28 0.28 94 1025.2
20260905083318 14 168 8.0 12.9 0.05 0.28 0.28 95 1024.9
20260905082344 14 160 6.4 11.3 0.05 0.28 0.28 95 1025.0
20260905081341 14 171 3.2 6.4 0.10 0.28 0.28 95 1025.0
20260905080338 14 222 4.8 4.8 0.10 0.25 0.25 95 1025.0
20260905075335 14 216 1.6 3.2 0.10 0.23 0.23 95 1025.1
20260905074333 14 206 3.2 4.8 0.10 0.23 0.23 94 1025.2
20260905073354 13 192 3.2 6.4 0.10 0.23 0.23 94 1024.9
20260905072326 13 261 3.2 4.8 0.08 0.20 0.20 94 1024.5
20260905071323 13 291 6.4 6.4 0.05 0.18 0.18 93 1024.7
20260905070340 14 288 6.4 9.7 0.03 0.15 0.15 93 1024.8
20260905065319 15 305 4.8 4.8 0.00 0.15 0.15 91 1024.3
20260905064347 15 327 11.3 20.9 0.00 0.13 0.13 88 1024.4
20260905063342 16 36 1.6 1.6 0.00 0.13 0.13 88 1024.5
20260905062400 16 63 1.6 1.6 0.00 0.13 0.13 88 1024.2
20260905061337 16 9 3.2 3.2 0.00 0.13 0.13 87 1024.2
20260905060334 16 46 8.0 14.5 0.00 0.13 0.13 85 1023.3
20260905055353 17 79 9.7 12.9 0.00 0.13 0.13 82 1022.8
20260905054348 18 308 6.4 9.7 0.00 0.13 0.13 84 1022.8
20260905053326 18 285 9.7 14.5 0.03 0.13 0.13 85 1022.4
20260905052324 18 311 6.4 9.7 0.03 0.13 0.13 87 1022.3
20260905051319 18 287 16.1 22.5 0.03 0.13 0.13 87 1022.2
20260905050316 18 281 14.5 20.9 0.03 0.13 0.13 88 1021.8
20260905045344 19 299 8.0 12.9 0.03 0.13 0.13 87 1021.3
20260905044341 20 298 8.0 11.3 0.00 0.13 0.13 81 1020.7
20260905043400 21 288 11.3 16.1 0.00 0.10 0.10 73 1020.3
20260905042336 21 265 8.0 14.5 0.00 0.10 0.10 71 1019.4
20260905041334 20 221 1.6 4.8 0.00 0.10 0.10 75 1019.5
20260905040330 20 202 4.8 9.7 0.00 0.10 0.10 82 1019.4
20260905035329 19 159 4.8 6.4 0.00 0.10 0.10 82 1019.1
20260905034324 19 188 6.4 6.4 0.00 0.10 0.10 82 1018.9
20260905033323 20 194 6.4 12.9 0.00 0.10 0.10 82 1019.1
20260905032340 20 202 8.0 11.3 0.00 0.10 0.10 81 1019.2
20260905031316 20 182 8.0 14.5 0.00 0.10 0.10 79 1019.0
20260905030343 21 196 8.0 14.5 0.03 0.10 0.10 75 1018.9
20260905025340 21 207 11.3 14.5 0.10 0.10 0.10 74 1019.3
20260905024342 21 213 9.7 14.5 0.10 0.10 0.10 73 1019.3
20260905023335 20 231 6.4 11.3 0.10 0.10 0.10 76 1019.2
20260905022333 20 208 6.4 9.7 0.10 0.10 0.10 79 1019.1
20260905021349 20 222 4.8 6.4 0.10 0.10 0.10 81 1018.9
20260905020326 21 284 4.8 12.9 0.10 0.10 0.10 76 1019.1
20260905015343 22 228 6.4 9.7 0.03 0.03 0.03 67 1019.1
20260905014322 23 301 8.0 11.3 0.00 0.00 0.00 57 1018.6
20260905013318 23 293 6.4 11.3 0.00 0.00 0.00 58 1018.3
20260905012345 23 284 3.2 4.8 0.00 0.00 0.00 59 1018.6
20260905011343 23 289 6.4 6.4 0.00 0.00 0.00 59 1018.6
20260905010343 23 303 9.7 14.5 0.00 0.00 0.00 57 1018.3